Location: Buch am Rannenberg
(48.6989°N, 10.6399°E)
Time: 22:17:47
(UTC+00:00)

STARLINK-1346 - Pass Details

Date: 07 June 2020
Orbit: 376 x 383 km, 53.0° (Epoch: 08 July)

Event Time Altitude Azimuth Distance (km) Brightness Sun altitude
Rises 01:28:15 0° 294° (WNW) 2,264 6.7 -12.7°
Reaches altitude 10° 01:30:20 10° 298° (WNW) 1,408 5.7 -12.5°
Maximum altitude 01:33:27 59° 19° (NNE) 450 3.5 -12.2°
Drops below altitude 10° 01:36:33 10° 100° (E) 1,402 6.0 -12.0°
Sets 01:38:36 0° 105° (ESE) 2,252 7.0 -11.8°
